Weather History for KROS - April, 2013

Change the Weather History Date:

Tuesday, April 9, 2013

  Actual Average (KCBG) Record (KCBG)
Temperature  
Mean Temperature 37 °F -  
Max Temperature 43 °F 47 °F 76 °F (1955)
Min Temperature 32 °F 28 °F 3 °F (1998)
Degree Days  
Heating Degree Days 28    
Moisture  
Dew Point 27 °F    
Average Humidity 69    
Maximum Humidity 90    
Minimum Humidity 50    
Precipitation  
Precipitation 0.00 in - - ()
Sea Level Pressure  
Sea Level Pressure 30.10 in    
Wind  
Wind Speed 10 mph (NNE)    
Max Wind Speed 18 mph    
Max Gust Speed 24 mph    
Visibility 10 miles    
Events      
Averages and records for this station are not official NWS values.
T = Trace of Precipitation, MM = Missing Value Source: NWS Daily Summary

Daily Weather History Graph

Daily Weather History Graph

Search for Another Location

Airport or City:

Trip Planner

Search our weather history database for the weather conditions in past years. The results will help you decide how hot, cold, wet, or windy it might be!

Date:

Astronomy

Apr. 09, 2013 Rise Set
Actual Time 6:36 AM CDT 7:50 PM CDT
Civil Twilight 6:05 AM CDT 8:21 PM CDT
Nautical Twilight 5:29 AM CDT 8:58 PM CDT
Astronomical Twilight 4:50 AM CDT 9:37 PM CDT
Moon 6:00 AM CDT (4/9) 7:27 PM CDT (4/9)
Length of Visible Light 14h 15m
Length of Day
13h 14m
Waning Crescent, 1% of the Moon is Illuminated
Apr 9
Waning Crescent
Apr 10
New
Apr 18
First Quarter
Apr 25
Full
May 2
Last Quarter

Hourly Weather History & Observations

Time (CDT) Temp. Windchill Dew Point Humidity Pressure Visibility Wind Dir Wind Speed Gust Speed Precip Events Conditions
12:15 AM 36.9 °F 34.3 °F 33.1 °F 86% 30.08 in 10.0 mi NNW 3.5 mph - N/A   Overcast
12:35 AM 36.7 °F 30.5 °F 32.9 °F 86% 30.08 in 10.0 mi North 8.1 mph - N/A   Overcast
12:56 AM 36.7 °F 31.2 °F 33.1 °F 87% 30.08 in 10.0 mi North 6.9 mph - N/A   Overcast
1:15 AM 36.3 °F 30.1 °F 32.9 °F 87% 30.07 in 10.0 mi NNE 8.1 mph - N/A   Overcast
1:35 AM 36.1 °F 29.9 °F 32.9 °F 88% 30.06 in 10.0 mi NNE 8.1 mph - N/A   Overcast
1:55 AM 36.0 °F 30.3 °F 32.5 °F 87% 30.06 in 10.0 mi NNE 6.9 mph - N/A   Overcast
2:15 AM 35.4 °F 29.0 °F 32.0 °F 87% 30.04 in 10.0 mi NNE 8.1 mph - N/A   Overcast
2:36 AM 34.7 °F 28.8 °F 32.0 °F 90% 30.06 in 10.0 mi North 6.9 mph - N/A   Mostly Cloudy
2:55 AM 34.7 °F 28.8 °F 31.8 °F 89% 30.05 in 10.0 mi North 6.9 mph - N/A   Mostly Cloudy
3:15 AM 35.1 °F 30.1 °F 32.0 °F 89% 30.05 in 10.0 mi North 5.8 mph - N/A   Overcast
3:35 AM 35.6 °F 28.6 °F 32.0 °F 87% 30.03 in 10.0 mi North 9.2 mph - N/A   Overcast
3:55 AM 35.6 °F 28.6 °F 32.0 °F 87% 30.03 in 10.0 mi North 9.2 mph - N/A   Overcast
4:15 AM 35.4 °F 28.4 °F 31.3 °F 85% 30.05 in 10.0 mi North 9.2 mph - N/A   Overcast
4:35 AM 34.7 °F 28.8 °F 30.9 °F 86% 30.08 in 10.0 mi North 6.9 mph - N/A   Overcast
4:55 AM 34.5 °F 31.6 °F 31.1 °F 87% 30.11 in 10.0 mi North 3.5 mph - N/A   Overcast
5:15 AM 34.7 °F 29.6 °F 31.3 °F 87% 30.11 in 10.0 mi North 5.8 mph - N/A   Overcast
5:35 AM 34.3 °F 27.0 °F 30.9 °F 87% 30.09 in 10.0 mi North 9.2 mph - N/A   Overcast
5:55 AM 33.8 °F 25.3 °F 30.7 °F 89% 30.08 in 10.0 mi North 11.5 mph - N/A   Mostly Cloudy
6:15 AM 33.3 °F 24.6 °F 30.2 °F 89% 30.08 in 10.0 mi North 11.5 mph 17.3 mph N/A   Scattered Clouds
6:35 AM 32.9 °F 24.7 °F 29.7 °F 88% 30.09 in 10.0 mi North 10.4 mph - N/A   Mostly Cloudy
6:55 AM 32.2 °F 24.4 °F 28.4 °F 86% 30.10 in 10.0 mi North 9.2 mph - N/A   Scattered Clouds
7:15 AM 32.0 °F 22.1 °F 27.5 °F 83% 30.10 in 10.0 mi North 13.8 mph - N/A   Scattered Clouds
7:36 AM 32.2 °F 22.7 °F 26.8 °F 80% 30.10 in 10.0 mi North 12.7 mph 17.3 mph N/A   Mostly Cloudy
7:55 AM 32.2 °F 22.7 °F 26.6 °F 80% 30.10 in 10.0 mi North 12.7 mph 18.4 mph N/A   Overcast
8:15 AM 32.2 °F 23.2 °F 26.4 °F 79% 30.11 in 10.0 mi North 11.5 mph - N/A   Overcast
8:36 AM 32.4 °F 23.5 °F 26.4 °F 79% 30.10 in 10.0 mi North 11.5 mph 16.1 mph N/A   Overcast
8:55 AM 32.5 °F 24.2 °F 26.2 °F 78% 30.09 in 10.0 mi North 10.4 mph 17.3 mph N/A   Mostly Cloudy
9:15 AM 32.9 °F 24.1 °F 26.2 °F 76% 30.08 in 10.0 mi North 11.5 mph 17.3 mph N/A   Overcast
9:36 AM 33.3 °F 24.1 °F 26.1 °F 75% 30.09 in 10.0 mi North 12.7 mph - N/A   Overcast
9:55 AM 33.4 °F 23.1 °F 25.7 °F 73% 30.10 in 10.0 mi North 16.1 mph - N/A   Overcast
10:15 AM 33.8 °F 23.9 °F 25.5 °F 72% 30.09 in 10.0 mi NNE 15.0 mph 20.7 mph N/A   Overcast
10:36 AM 33.8 °F 23.9 °F 25.7 °F 72% 30.11 in 10.0 mi NNE 15.0 mph 18.4 mph N/A   Overcast
10:55 AM 34.2 °F 24.0 °F 25.7 °F 71% 30.10 in 10.0 mi NNE 16.1 mph 20.7 mph N/A   Overcast
11:15 AM 34.3 °F 26.5 °F 25.9 °F 71% 30.11 in 10.0 mi North 10.4 mph 19.6 mph N/A   Overcast
11:36 AM 34.0 °F 25.5 °F 25.5 °F 71% 30.12 in 10.0 mi North 11.5 mph - N/A   Overcast
11:55 AM 34.2 °F 25.2 °F 25.5 °F 71% 30.13 in 10.0 mi North 12.7 mph - N/A   Overcast
12:15 PM 34.7 °F 25.9 °F 25.5 °F 69% 30.14 in 10.0 mi North 12.7 mph - N/A   Overcast
12:36 PM 35.2 °F 26.2 °F 25.5 °F 68% 30.14 in 10.0 mi North 13.8 mph - N/A   Overcast
12:55 PM 36.5 °F 26.7 °F 25.7 °F 65% 30.13 in 10.0 mi North 17.3 mph - N/A   Overcast
1:16 PM 37.4 °F 29.3 °F 25.9 °F 63% 30.12 in 10.0 mi NNE 12.7 mph 19.6 mph N/A   Overcast
1:35 PM 38.7 °F 30.1 °F 26.2 °F 61% 30.09 in 10.0 mi NNE 15.0 mph 23.0 mph N/A   Overcast
1:55 PM 40.3 °F 31.3 °F 26.8 °F 59% 30.09 in 10.0 mi NNE 18.4 mph 24.2 mph N/A   Scattered Clouds
2:15 PM 40.8 °F 33.3 °F 26.1 °F 56% 30.10 in 10.0 mi NNE 13.8 mph 19.6 mph N/A   Clear
2:35 PM 41.0 °F 32.8 °F 25.9 °F 55% 30.09 in 10.0 mi NE 16.1 mph 19.6 mph N/A   Mostly Cloudy
2:55 PM 41.7 °F 33.4 °F 26.2 °F 54% 30.09 in 10.0 mi NNE 17.3 mph 23.0 mph N/A   Overcast
3:15 PM 41.9 °F 34.6 °F 25.9 °F 53% 30.08 in 10.0 mi NNE 13.8 mph 21.9 mph N/A   Mostly Cloudy
3:36 PM 41.9 °F 34.0 °F 26.1 °F 53% 30.07 in 10.0 mi NNE 16.1 mph 21.9 mph N/A   Overcast
3:55 PM 42.3 °F 33.8 °F 25.7 °F 52% 30.08 in 10.0 mi NNE 18.4 mph 24.2 mph N/A   Overcast
4:15 PM 42.1 °F 34.2 °F 26.2 °F 53% 30.07 in 10.0 mi NE 16.1 mph 21.9 mph N/A   Overcast
4:36 PM 42.8 °F 34.8 °F 25.9 °F 51% 30.07 in 10.0 mi NE 17.3 mph 23.0 mph N/A   Overcast
4:55 PM 41.9 °F 34.0 °F 25.0 °F 51% 30.10 in 10.0 mi NNE 16.1 mph 21.9 mph N/A   Overcast
5:15 PM 41.2 °F 34.1 °F 25.3 °F 53% 30.12 in 10.0 mi NNE 12.7 mph 18.4 mph N/A   Overcast
5:36 PM 41.0 °F 34.3 °F 24.6 °F 52% 30.14 in 10.0 mi NNE 11.5 mph 16.1 mph N/A   Overcast
5:55 PM 40.6 °F 34.3 °F 24.8 °F 53% 30.14 in 10.0 mi NE 10.4 mph 19.6 mph N/A   Overcast
6:15 PM 40.5 °F 33.6 °F 24.1 °F 52% 30.13 in 10.0 mi NNE 11.5 mph 20.7 mph N/A   Overcast
6:35 PM 40.3 °F 32.2 °F 23.9 °F 52% 30.12 in 10.0 mi NE 15.0 mph 19.6 mph N/A   Overcast
6:55 PM 40.1 °F 32.7 °F 23.4 °F 51% 30.11 in 10.0 mi NE 12.7 mph 19.6 mph N/A   Overcast
7:15 PM 39.6 °F 32.1 °F 22.5 °F 50% 30.11 in 10.0 mi NE 12.7 mph 21.9 mph N/A   Overcast
7:35 PM 39.2 °F 35.0 °F 25.5 °F 58% 30.11 in 10.0 mi ENE 5.8 mph - N/A   Overcast
7:55 PM 38.5 °F 33.4 °F 26.2 °F 61% 30.11 in 10.0 mi ENE 6.9 mph - N/A   Overcast
8:15 PM 38.5 °F 32.7 °F 25.7 °F 60% 30.13 in 10.0 mi ENE 8.1 mph 16.1 mph N/A   Overcast
8:35 PM 37.9 °F 30.5 °F 25.5 °F 61% 30.13 in 10.0 mi NE 11.5 mph - N/A   Overcast
8:55 PM 37.6 °F 30.5 °F 25.0 °F 60% 30.12 in 10.0 mi NE 10.4 mph - N/A   Overcast
9:15 PM 37.4 °F 29.8 °F 24.6 °F 60% 30.13 in 10.0 mi NE 11.5 mph 17.3 mph N/A   Overcast
9:55 PM 36.5 °F 28.7 °F 22.1 °F 56% 30.11 in 10.0 mi NE 11.5 mph - N/A   Mostly Cloudy
10:16 PM 36.0 °F 27.1 °F 21.2 °F 55% 30.11 in 10.0 mi NE 13.8 mph 17.3 mph N/A   Overcast
10:35 PM 36.0 °F 28.5 °F 20.7 °F 54% 30.12 in 10.0 mi NE 10.4 mph 18.4 mph N/A   Overcast
10:55 PM 35.6 °F 28.0 °F 20.3 °F 54% 30.13 in 10.0 mi NE 10.4 mph 16.1 mph N/A   Overcast
11:16 PM 35.6 °F 28.6 °F 20.8 °F 55% 30.17 in 10.0 mi NE 9.2 mph - N/A   Overcast
11:35 PM 35.2 °F 28.8 °F 20.1 °F 54% 30.19 in 10.0 mi ENE 8.1 mph - N/A   Overcast
11:55 PM 35.1 °F 28.6 °F 19.9 °F 54% 30.20 in 10.0 mi NE 8.1 mph - N/A   Overcast